Date String (YYYY-MM-DD hh:mm:ss) UTC,Instrument flags,Ambient pressure (hPa),Sample flow (lpm),Bypass flow (lpm),Sample temperature (°C),Ambient temperature (°C),ASC tube jacket temperature (°C),LED temperature (°C),Box temperature (°C),Sample RH (%),Span deviation,Mass concentration (μg/m³),Mass concentration (μg/m³),Mass concentration (μg/m³)
DateTimeUTC,F1_M11,P_M11,Q1_M11,Q2_M11,T1_M11,T2_M11,T3_M11,T4_M11,T5_M11,U1_M11,ZSPAN_M11,X0_M11,X2_M11,X1_M11
2022-03-21 14:00:00,,0824.4,5.00,0.00,21.1,20.0,00.0,30.4,22.6,16.7,0000.0,0004.88,0001.94,0001.02
2022-03-21 14:01:00,,0824.3,5.01,0.00,21.0,20.0,00.0,30.4,22.6,16.7,0000.0,0004.79,0001.91,0001.04
2022-03-21 14:02:00,,0824.4,5.02,0.00,21.0,20.0,00.0,30.3,22.6,16.7,0000.0,0005.24,0001.91,0001.06
2022-03-21 14:03:00,,0824.4,5.00,0.00,21.0,20.0,00.0,30.3,22.5,16.6,0000.0,0005.75,0001.94,0001.09
2022-03-21 14:04:00,,0824.4,5.02,0.00,21.0,20.0,00.0,30.3,22.5,16.4,0000.0,0006.82,0002.02,0001.12
2022-03-21 14:05:00,,0824.4,5.00,0.00,20.9,20.0,00.0,30.2,22.5,16.4,0000.0,0007.56,0002.09,0001.13
2022-03-21 14:06:00,,0824.4,5.00,0.00,20.9,19.9,00.0,30.2,22.5,16.4,0000.0,0007.81,0002.10,0001.16
2022-03-21 14:07:00,,0824.3,4.99,0.00,20.9,19.8,00.0,30.2,22.4,16.4,0000.0,0008.34,0002.09,0001.18
2022-03-21 14:08:00,,0824.3,5.02,0.00,20.9,19.9,00.0,30.1,22.4,16.4,0000.0,0008.12,0002.04,0001.19
2022-03-21 14:09:00,,0824.3,5.01,0.00,20.8,19.8,00.0,30.1,22.4,16.5,0000.0,0008.14,0001.98,0001.19
2022-03-21 14:10:00,,0824.3,5.00,0.00,20.8,19.8,00.0,30.1,22.4,16.6,0000.0,0008.23,0001.99,0001.20
2022-03-21 14:11:00,,0824.3,4.99,0.00,20.8,19.8,00.0,30.1,22.3,16.6,0000.0,0008.17,0001.98,0001.22
2022-03-21 14:12:00,,0824.4,5.00,0.00,20.7,19.8,00.0,30.1,22.3,16.7,0000.0,0008.16,0001.92,0001.23
2022-03-21 14:13:00,,0824.4,5.00,0.00,20.7,19.8,00.0,30.0,22.3,16.8,0000.0,0008.01,0001.94,0001.24
2022-03-21 14:14:00,,0824.4,5.00,0.00,20.7,19.8,00.0,30.0,22.3,16.9,0000.0,0008.41,0001.94,0001.24
2022-03-21 14:15:00,,0824.4,5.01,0.00,20.7,19.9,00.0,30.0,22.3,17.0,0000.0,0008.36,0001.94,0001.23
2022-03-21 14:16:00,,0824.4,5.01,0.00,20.7,19.9,00.0,29.9,22.2,17.1,0000.0,0007.75,0001.87,0001.22
2022-03-21 14:17:00,,0824.4,4.99,0.00,20.7,19.9,00.0,29.9,22.2,17.0,0000.0,0007.66,0001.84,0001.22
2022-03-21 14:18:00,,0824.5,5.00,0.00,20.6,19.8,00.0,29.9,22.2,17.0,0000.0,0007.27,0001.86,0001.21
2022-03-21 14:19:00,,0824.5,5.01,0.00,20.6,19.8,00.0,29.9,22.3,16.8,0000.0,0007.27,0001.87,0001.20
2022-03-21 14:20:00,,0824.5,5.00,0.00,20.6,19.7,00.0,29.9,22.2,16.8,0000.0,0007.10,0001.90,0001.20
2022-03-21 14:21:00,,0824.5,5.01,0.00,20.6,19.7,00.0,29.8,22.2,16.7,0000.0,0006.76,0001.88,0001.20
2022-03-21 14:22:00,,0824.5,5.00,0.00,20.6,19.7,00.0,29.8,22.1,16.6,0000.0,0007.23,0001.89,0001.21
2022-03-21 14:23:00,,0824.5,5.01,0.00,20.5,19.7,00.0,29.8,22.1,16.5,0000.0,0007.19,0001.92,0001.22
2022-03-21 14:24:00,,0824.5,5.00,0.00,20.5,19.6,00.0,29.8,22.1,16.6,0000.0,0007.09,0001.95,0001.23
2022-03-21 14:25:00,,0824.5,4.99,0.00,20.5,19.6,00.0,29.7,22.1,16.6,0000.0,0005.65,0001.95,0001.23
2022-03-21 14:26:00,,0824.6,5.00,0.00,20.5,19.8,00.0,29.7,22.2,16.6,0000.0,0004.85,0001.94,0001.24
2022-03-21 14:27:00,,0824.6,5.00,0.00,20.6,20.6,00.0,29.8,22.4,16.5,0000.0,0004.96,0001.99,0001.24
2022-03-21 14:28:00,,0824.6,5.02,0.00,20.8,21.6,00.0,29.8,22.8,16.4,0000.0,0004.98,0002.00,0001.25
2022-03-21 14:29:00,,0824.6,4.98,0.00,21.0,22.2,00.0,29.9,23.0,16.4,0000.0,0005.38,0001.98,0001.25
2022-03-21 14:30:00,,0824.6,5.01,0.00,21.0,21.9,00.0,29.9,23.0,16.4,0000.0,0005.65,0002.03,0001.25
2022-03-21 14:31:00,,0824.6,5.00,0.00,21.0,21.5,00.0,29.9,22.9,16.5,0000.0,0005.59,0001.98,0001.24
2022-03-21 14:32:00,,0824.6,5.00,0.00,21.0,21.1,00.0,29.9,22.7,16.5,0000.0,0005.68,0002.00,0001.24
2022-03-21 14:33:00,,0824.6,4.99,0.00,20.9,20.8,00.0,29.9,22.6,16.5,0000.0,0005.56,0002.03,0001.24
2022-03-21 14:34:00,,0824.7,4.99,0.00,20.9,20.5,00.0,29.9,22.5,16.5,0000.0,0005.50,0002.05,0001.25
2022-03-21 14:35:00,,0824.6,5.00,0.00,20.8,20.3,00.0,29.9,22.4,16.7,0000.0,0005.47,0002.05,0001.25
2022-03-21 14:36:00,,0824.7,5.00,0.00,20.8,20.2,00.0,29.9,22.4,16.9,0000.0,0007.01,0002.08,0001.24
2022-03-21 14:37:00,,0824.6,4.99,0.00,20.7,20.1,00.0,29.9,22.3,16.9,0000.0,0007.20,0002.12,0001.25
2022-03-21 14:38:00,,0824.6,5.00,0.00,20.7,20.1,00.0,29.9,22.3,16.9,0000.0,0007.31,0002.14,0001.27
2022-03-21 14:39:00,,0824.6,5.00,0.00,20.7,20.0,00.0,29.9,22.3,17.1,0000.0,0007.41,0002.19,0001.28
2022-03-21 14:40:00,,0824.6,5.00,0.00,20.6,19.9,00.0,29.9,22.2,17.1,0000.0,0006.86,0002.26,0001.30
2022-03-21 14:41:00,,0824.7,5.00,0.00,20.6,19.7,00.0,29.8,22.2,17.0,0000.0,0006.99,0002.28,0001.32
2022-03-21 14:42:00,,0824.7,5.00,0.00,20.6,19.6,00.0,29.8,22.1,17.2,0000.0,0007.57,0002.39,0001.34
2022-03-21 14:43:00,,0824.7,5.00,0.00,20.6,19.7,00.0,29.8,22.1,17.3,0000.0,0007.71,0002.47,0001.36
2022-03-21 14:44:00,,0824.8,4.99,0.00,20.5,19.7,00.0,29.8,22.1,17.4,0000.0,0007.74,0002.44,0001.36
2022-03-21 14:45:00,,0824.7,5.00,0.00,20.5,19.7,00.0,29.8,22.0,17.6,0000.0,0007.75,0002.43,0001.36
2022-03-21 14:46:00,,0824.8,4.99,0.00,20.6,20.3,00.0,29.8,22.2,17.8,0000.0,0007.88,0002.47,0001.36
2022-03-21 14:47:00,,0824.9,5.02,0.00,20.7,21.4,00.0,29.8,22.6,17.8,0000.0,0007.32,0002.49,0001.38
2022-03-21 14:48:00,,0824.9,4.99,0.00,20.9,22.4,00.0,29.9,23.0,17.7,0000.0,0007.53,0002.47,0001.38
2022-03-21 14:49:00,,0824.9,5.00,0.00,21.1,22.7,00.0,29.9,23.2,17.6,0000.0,0007.84,0002.54,0001.38
2022-03-21 14:50:00,,0824.9,4.99,0.00,21.1,22.3,00.0,29.9,23.0,17.7,0000.0,0007.92,0002.56,0001.38
2022-03-21 14:51:00,,0824.9,5.00,0.00,21.1,21.9,00.0,30.0,22.9,17.7,0000.0,0007.70,0002.53,0001.37
2022-03-21 14:52:00,,0824.9,5.00,0.00,21.0,21.4,00.0,30.0,22.8,17.8,0000.0,0008.02,0002.50,0001.36
2022-03-21 14:53:00,,0824.8,5.01,0.00,21.0,21.0,00.0,30.0,22.7,17.9,0000.0,0008.64,0002.46,0001.36
2022-03-21 14:54:00,,0824.9,4.98,0.00,21.0,20.7,00.0,30.0,22.6,18.0,0000.0,0008.83,0002.47,0001.36
2022-03-21 14:55:00,,0824.9,5.00,0.00,20.9,20.5,00.0,30.0,22.5,18.2,0000.0,0009.12,0002.57,0001.36
2022-03-21 14:56:00,,0824.9,5.00,0.00,20.9,20.3,00.0,30.0,22.5,18.4,0000.0,0009.67,0002.63,0001.36
2022-03-21 14:57:00,,0824.9,5.01,0.00,20.8,20.2,00.0,30.0,22.4,18.4,0000.0,0010.09,0002.63,0001.38
2022-03-21 14:58:00,,0824.9,5.00,0.00,20.8,20.1,00.0,29.9,22.4,18.5,0000.0,0009.93,0002.67,0001.39
2022-03-21 14:59:00,,0824.9,5.00,0.00,20.7,20.0,00.0,29.9,22.3,18.6,0000.0,0009.92,0002.73,0001.41
